Retour au catalogue

STARLINK-30153

ActifCommunicationsVLEO
NORAD 57510·PAYLOAD·🇺🇸 United States

Lancé Aug 7, 2023 depuis Cape Canaveral Space Force Station

Loading…

Prochains Passages (prochaines 24 heures)

TLE

FraisSource: CelesTrak SupGP

Époque: Sep 15, 2026, 01:52 UTC

1 57510C 23113R   26258.07826389 -.00076245  00000+0 -27616-2 0  2581
2 57510  43.0044  26.1634 0001917 270.1338  97.4606 15.27614986    11

Suivez STARLINK-30153 en temps réel avec AllMySat

Download on the App Store